Weather History for Charlotte, NC

Change the Weather History Date:

Sunday, June 1, 2014

  Actual Average Record
Temperature  
Mean Temperature 71 °F 72 °F  
Max Temperature 78 °F 83 °F 98 °F (1918)
Min Temperature 63 °F 61 °F 45 °F (1889)
Degree Days  
Heating Degree Days 0 0  
Month to date heating degree days 0 0  
Since 1 June heating degree days 0 0  
Since 1 July heating degree days 3397 3385  
Cooling Degree Days 6 7  
Month to date cooling degree days 6 7  
Year to date cooling degree days 234 170  
Since 1 June cooling degree days 6 7  
Growing Degree Days 20 (Base 50)    
Moisture  
Dew Point 53 °F    
Average Humidity 59    
Maximum Humidity 78    
Minimum Humidity 39    
Precipitation  
Precipitation 0.00 in 0.13 in 2.87 in (1915)
Month to date precipitation 0.00 0.13  
Year to date precipitation 22.79 17.09  
Snow  
Snow 0.00 in 0.00 in 0.00 in ()
Month to date snowfall 0.0 0.0  
Since 1 June snowfall 0.0 0.0  
Since 1 July snowfall 9.3 4.3  
Snow Depth 0.00 in    
Sea Level Pressure  
Sea Level Pressure 30.26 in    
Wind  
Wind Speed 8 mph (ESE)    
Max Wind Speed 15 mph    
Max Gust Speed 26 mph    
Visibility 10 miles    
Events      
T = Trace of Precipitation, MM = Missing Value Source: NWS Daily Summary

Daily Weather History Graph

Daily Weather History Graph

Search for Another Location

Airport:

Trip Planner

Search our weather history database for the weather conditions in past years. The results will help you decide how hot, cold, wet, or windy it might be!

Date:

Astronomy

Jun. 01, 2014 Rise Set
Actual Time 6:10 AM EDT 8:33 PM EDT
Civil Twilight 5:41 AM EDT 9:02 PM EDT
Nautical Twilight 5:05 AM EDT 9:38 PM EDT
Astronomical Twilight 4:25 AM EDT 10:18 PM EDT
Moon 9:36 AM EDT (6/1) 11:32 PM EDT (6/1)
Length of Visible Light 15h 21m
Length of Day
14h 22m
Waxing Crescent, 14% of the Moon is Illuminated
Jun 1
Waxing Crescent
Jun 5
First Quarter
Jun 13
Full
Jun 19
Last Quarter
Jun 27
New

Hourly Weather History & Observations

Time (EDT) Temp. Dew Point Humidity Pressure Visibility Wind Dir Wind Speed Gust Speed Precip Events Conditions
12:52 AM 70.0 °F 57.0 °F 63% 30.19 in 10.0 mi East 5.8 mph - N/A   Clear
1:52 AM 69.1 °F 55.0 °F 61% 30.19 in 10.0 mi East 8.1 mph - N/A   Clear
2:52 AM 68.0 °F 54.0 °F 61% 30.20 in 10.0 mi East 8.1 mph - N/A   Clear
3:52 AM 66.0 °F 57.0 °F 73% 30.22 in 10.0 mi SE 11.5 mph - N/A   Clear
4:52 AM 64.0 °F 57.0 °F 78% 30.24 in 10.0 mi SE 10.4 mph - N/A   Clear
5:52 AM 63.0 °F 55.9 °F 78% 30.25 in 10.0 mi SE 8.1 mph - N/A   Clear
6:52 AM 64.0 °F 55.0 °F 73% 30.26 in 10.0 mi ESE 6.9 mph - N/A   Partly Cloudy
7:52 AM 66.0 °F 55.0 °F 68% 30.29 in 10.0 mi ESE 9.2 mph - N/A   Scattered Clouds
8:52 AM 69.1 °F 52.0 °F 54% 30.30 in 10.0 mi ESE 10.4 mph - N/A   Mostly Cloudy
9:52 AM 71.1 °F 51.1 °F 49% 30.31 in 10.0 mi East 9.2 mph 16.1 mph N/A   Mostly Cloudy
10:52 AM 71.6 °F 51.8 °F 50% 30.33 in 10.0 mi ESE 8.1 mph - N/A   Mostly Cloudy
11:52 AM 73.9 °F 54.0 °F 50% 30.31 in 10.0 mi SSE 5.8 mph - N/A   Scattered Clouds
12:52 PM 73.9 °F 52.0 °F 46% 30.31 in 10.0 mi East 6.9 mph - N/A   Mostly Cloudy
1:52 PM 73.9 °F 53.1 °F 48% 30.30 in 10.0 mi SSE 6.9 mph - N/A   Mostly Cloudy
2:52 PM 77.0 °F 54.0 °F 45% 30.28 in 10.0 mi East 8.1 mph 16.1 mph N/A   Mostly Cloudy
3:52 PM 77.0 °F 53.1 °F 43% 30.26 in 10.0 mi ESE 6.9 mph - N/A   Scattered Clouds
4:52 PM 77.0 °F 52.0 °F 42% 30.24 in 10.0 mi East 8.1 mph - N/A   Mostly Cloudy
5:52 PM 78.1 °F 52.0 °F 40% 30.22 in 10.0 mi NE 6.9 mph - N/A   Scattered Clouds
6:52 PM 75.9 °F 51.1 °F 42% 30.22 in 10.0 mi ESE 6.9 mph - N/A   Mostly Cloudy
7:52 PM 75.0 °F 51.1 °F 43% 30.22 in 10.0 mi ESE 10.4 mph - N/A   Scattered Clouds
8:52 PM 73.0 °F 51.1 °F 46% 30.22 in 10.0 mi ESE 9.2 mph - N/A   Scattered Clouds
9:52 PM 71.6 °F 51.8 °F 50% 30.26 in 10.0 mi East 4.6 mph - N/A   Scattered Clouds
10:52 PM 72.0 °F 51.1 °F 48% 30.26 in 10.0 mi ESE 6.9 mph - N/A   Mostly Cloudy
11:52 PM 69.1 °F 50.0 °F 51% 30.27 in 10.0 mi East 6.9 mph - N/A   Mostly Cloudy